This is the latest recevied weather packets stored in our database for station/object KN6ZYR. If no packets are shown the sender has not sent any weather packets the latest 10 day(s).
| Time | Temp. | Humidity | Pressure | Rain* | Wind** | Luminosity | Snow |
|---|---|---|---|---|---|---|---|
| 1777596138 | 23.33° C | 15% | 1017 hPa | 0 mm | - | 45 W/m² | - |
| 1777595834 | 23.33° C | 15% | 1017 hPa | 0 mm | - | 47 W/m² | - |
| 1777595529 | 23.89° C | 14% | 1017.3 hPa | 0 mm | - | 82 W/m² | - |
| 1777595226 | 23.33° C | 15% | 1017.1 hPa | 0 mm | - | 61 W/m² | - |
| 1777594921 | 23.89° C | 15% | 1017.2 hPa | 0 mm | - | 50 W/m² | - |
| 1777594618 | 23.89° C | 15% | 1017.3 hPa | 0 mm | - | 50 W/m² | - |
| 1777594314 | 23.89° C | 15% | 1017.2 hPa | 0 mm | - | 77 W/m² | - |
| 1777594011 | 23.89° C | 15% | 1017.1 hPa | 0 mm | - | 295 W/m² | - |
| 1777593707 | 23.89° C | 14% | 1017.4 hPa | 0 mm | - | 309 W/m² | - |
| 1777593403 | 23.89° C | 14% | 1017 hPa | 0 mm | - | 326 W/m² | - |
| 1777593102 | 23.89° C | 15% | 1017.3 hPa | 0 mm | - | 339 W/m² | - |
| 1777592801 | 23.89° C | 15% | 1017.2 hPa | 0 mm | - | 354 W/m² | - |
| 1777592497 | 23.89° C | 15% | 1017.4 hPa | 0 mm | - | 368 W/m² | - |
| 1777592193 | 23.89° C | 14% | 1017.3 hPa | 0 mm | - | 382 W/m² | - |
| 1777591889 | 24.44° C | 14% | 1017.4 hPa | 0 mm | - | 398 W/m² | - |
| 1777591586 | 25° C | 14% | 1017.3 hPa | 0 mm | - | 411 W/m² | - |
| 1777591282 | 24.44° C | 15% | 1017.2 hPa | 0 mm | - | 426 W/m² | - |
| 1777590978 | 24.44° C | 14% | 1017.2 hPa | 0 mm | - | 439 W/m² | - |
| 1777590674 | 24.44° C | 14% | 1017.5 hPa | 0 mm | - | 453 W/m² | - |
| 1777590370 | 24.44° C | 15% | 1017.3 hPa | 0 mm | - | 468 W/m² | - |
| 1777590067 | 24.44° C | 14% | 1017.5 hPa | 0 mm | - | 482 W/m² | - |
| 1777589763 | 23.89° C | 15% | 1017.7 hPa | 0 mm | - | 496 W/m² | - |
| 1777589462 | 24.44° C | 14% | 1017.7 hPa | 0 mm | - | 510 W/m² | - |
| 1777589157 | 25° C | 14% | 1017.9 hPa | 0 mm | - | 523 W/m² | - |
| 1777588854 | 25° C | 14% | 1017.9 hPa | 0 mm | - | 536 W/m² | - |
* Rain latest hour (hover to see other rain measurements)
** Current wind speed in m/s (hover to see current wind gust speed)